Find Starlink 37997

NORAD ID: 69682 Int'l Des: 2026-145 Owner: SPXS Country: US Constellation: starlink operational
LEOCIRCULARRETROGRADE

現在のビュー

3D地球を読み込み中...

About Starlink 37997

Starlink 37997 (NORAD 69682) is a starlink constellation satellite (v2 mini) launched Jun 25, 2026 by SPXS of US. It operates in LEO, CIRCULAR, RETROGRADE orbit with a mass of 575.00 kg.

次回通過

Passes for default location (London). Set your location on the main map for personalized predictions.

高度履歴

Loading altitude history...

軌道要素

1 69682U 26145F 26235.52293503 .00011819 00000-0 36775-3 0 9997
2 69682 97.2869 82.5545 0002764 106.8308 253.3238 15.33451333 10501
Epoch: Aug 23, 2026 • Age: 17 hours

現在のステータス

高度 490.9 km
遠地点 / 近地点 N/A
速度 7.62 km/s
衛星直下点 -62.34°S, 162.32°W
打ち上げ日 Jun 25, 2026
運用期間 0.1 years
タイプ internet

技術仕様

分類 Payload
質量 575.00 kg
乾燥質量 530.00 kg
総質量 575.00 kg
長さ 0.30 m
直径 4.10 m
スパン 29.00 m
形状 Box + pan
製造者 SPXS
バスタイプ Starlink V2MO
フェーズステータス In Orbit
所有者/国 SPXS/US

Most Searched